Regional Weather Roundup
Issued by NWS Charleston, WV

Home | Current Version | Previous Version | Graphics & Text | Print | Product List | Glossary On
Versions: 1 2 3 4 5 6 7 8 9 10 11 12 13 14 15 16 17 18 19 20 21 22 23 24 25 26 27 28 29 30 31 32 33 34 35 36 37 38 39 40 41 42 43 44 45 46 47 48 49 50
415
ASUS41 KRLX 190410
RWRRLX
West Virginia Regional Weather Roundup
National Weather Service Charleston WV
1100 PM EST WED JAN 18 2017

Note: "fair" indicates few or no clouds below 12,000 feet with no
significant weather and/or obstructions to visibility.

WVZ003-190500-
Northern Panhandle of West Virginia

CITY           SKY/WX    TMP DP  RH WIND       PRES   REMARKS
WHEELING       CLOUDY    37  34  89 SW9       30.11R
$$

WVZ009-190500-
Northwest West Virginia

CITY           SKY/WX    TMP DP  RH WIND       PRES   REMARKS
PARKERSBURG    CLOUDY    40  34  79 CALM      30.17F
$$

WVZ006-190500-
Western West Virginia

CITY           SKY/WX    TMP DP  RH WIND       PRES   REMARKS
HUNTINGTON     CLOUDY    44  37  76 SW3       30.14F
$$

WVZ015-190500-
West Central West Virginia

CITY           SKY/WX    TMP DP  RH WIND       PRES   REMARKS
CHARLESTON     CLOUDY    43  37  79 CALM      30.15F
$$

WVZ022-031-190500-
North Central West Virginia

CITY           SKY/WX    TMP DP  RH WIND       PRES   REMARKS
CLARKSBURG     CLOUDY    40  35  83 SW8       30.13R
MORGANTOWN     CLOUDY    40  34  79 VRB5      30.13R
$$

WVZ025-035-042-045-190500-
Southern West Virginia

CITY           SKY/WX    TMP DP  RH WIND       PRES   REMARKS
BECKLEY        CLOUDY    38  35  89 W7        30.12S
LOGAN          CLOUDY    41  37  87 CALM      30.13F
BLUEFIELD      CLOUDY    33  31  92 W5        30.12R
LEWISBURG      CLOUDY    38  34  85 W5        30.12S
$$

WVZ047-190500-
Northern Mountains of West Virginia

CITY           SKY/WX    TMP DP  RH WIND       PRES   REMARKS
ELKINS         CLOUDY    38  34  85 CALM      30.13R
$$

WVZ052-190500-
Eastern Panhandle of West Virginia

CITY           SKY/WX    TMP DP  RH WIND       PRES   REMARKS
MARTINSBURG    CLOUDY    44  34  67 CALM      30.07F
PETERSBURG     CLOUDY    34  33  95 CALM      30.11R
$$




USA.gov is the U.S. government's official web portal to all federal, state and local government web resources and services.